星链-1860 (STARLINK-1860 )

导读 | 豆包AI

STARLINK-1860是美国太空探索技术公司星链星座的卫星,于北京时间2020年11月25日发射升空,属于星链低轨互联网星座组网卫星。它依托近地轨道部署,为全球提供高速低延迟宽带网络服务,是星链大规模组网进程中重要组成部分,推进了星链全球互联网覆盖布局。

基本信息
目录编号:
47147
目录名称:
STARLINK-1860
国际标识:
2020-088AB
轨道中心:
EARTH
卫星名称:
星链-1860
卫星全名:
星链-1860 (STARLINK-1860 )
卫星状态:
已陨落 最后检测时间 2025-07-01
发射日期:
2020-11-25 UTC
国别 :
美国 (US)
星等 :
--
轨道信息
数据来源 国际轨道数据
星历时间: 2025-07-01T03:39:42+0800
轨道信息已过期256天
半长轴: 6555.443km
偏心率: 0.001067
轨道倾角: 52.987°
近地点辐角 315.259°
升交点赤经 264.890°
平近点角 147.968°
近地点: 170.313km
远地点: 184.303km
周期: 88.036分钟
每日圈数: 16.356854
详细信息
固有亮度:
5
最大亮度:
2.5
卫星平台:
Starlink V1.0
覆盖范围:
全球
运营商:
太空探索技术公司
运营商所在国:
美国
制造商(研发单位):
太空探索技术公司
制造商所在国:
美国
使用方式:
暂无
卫星简介
星链(Starlink)计划是由太空探索技术公司(SpaceX)提出的一个巨型低轨卫星互联网星座项目,计划在2019年至2024年间在太空搭建由约1.2万颗卫星组成的“星链”网络,其中1584颗将部署在地球上空550千米处的近地轨道,并从2020年开始工作。该卫星仍在工作。